User: anonymous
Location: Plum
(40.5000°N, 79.7500°W)
Time: 07:16:18
(UTC-04:00)
Language:

Cosmos 1825 - Orbit

View from above orbital plane
View from above orbital plane
View from above satellite
View from above satellite

Ground track
Ground track

The orbit data is extracted from the following two-line orbital elements,

1 17566U 87024A   14244.06076627  .00003220  00000-0  18226-3 0   771
2 17566 082.5057 218.3892 0006141 136.3284 339.6327 15.12707583499224
Epoch (UTC): 01 September 2014 01:27:30
Eccentricity: 0.0006141
inclination: 82.5057°
perigee height: 524 km
apogee height: 532 km
right ascension of ascending node: 218.3892°
argument of perigee: 136.3284°
revolutions per day: 15.12707583
mean anomaly at epoch: 339.6327°
orbit number at epoch: 49922

The dashed part of the orbit path shows where the satellite is in the earth's shadow,  

DLR